Regional Weather Roundup
Issued by NWS

Home | Current Version | Previous Version | Text Only | Print | Product List | Glossary Off
Versions: 1 2 3 4 5 6 7 8 9 10 11 12 13 14 15 16 17 18 19 20 21 22 23 24 25 26 27 28 29 30 31 32 33 34 35 36 37 38 39 40 41 42 43 44 45 46 47 48 49 50

682
ASUS43 KIND 271209
RWRIN

WEATHER ROUNDUP FOR INDIANA
NATIONAL WEATHER SERVICE INDIANAPOLIS IN
800 AM EDT THU JUL 27 2017

NOTE: "FAIR" INDICATES FEW OR NO CLOUDS BELOW 12,000 FEET WITH NO
SIGNIFICANT WEATHER AND/OR OBSTRUCTIONS TO VISIBILITY.

* - STATION DOES NOT REPORT WEATHER SUCH AS PRECIPITATION OR FOG.

+ - STATION NOT QUALITY CONTROLLED BY THE NATIONAL WEATHER SERVICE.
    USE DATA WITH CAUTION...ESPECIALLY DEWPOINT AND RELATIVE
    HUMIDITY OBSERVATIONS.

INZ001>003-010>013-019-020-271300-
NORTHWEST INDIANA

CITY           SKY/WX    TMP DP  RH WIND       PRES   REMARKS
GARY /AIRPORT/ CLOUDY    75  73  94 NW7       29.93S FOG
KNOX *+        CLOUDY    72  72 100 CALM      29.93S
LA PORTE +     CLOUDY    72  70  95 CALM      29.94S
6HR MIN TEMP:  71; 6HR MAX TEMP:  72;

MICHIGAN CITY+ CLOUDY    72  72 100 CALM      29.93F
MONTICELLO +   CLOUDY    72  70  95 SW6       29.93S
6HR MIN TEMP:  71; 6HR MAX TEMP:  74; 6HR PCP:  0.20;

RENSSELAER +   CLOUDY    70  68  94 CALM      29.94S
VALPARAISO     CLOUDY    73  72  96 W3        29.93S FOG
6HR MIN TEMP:  72; 6HR MAX TEMP:  75; 6HR PCP:  0.01;


$$

LMZ046-743>745-271300-
SOUTHERN LAKE MICHIGAN

STATION/POSITION TIME  TEMP    WIND        PRES    WAVE
                       AIR SEA DIR/SP/G            HT
                 (UTC) (F)     (DEG/KT/KT) (MB)    (FT)
BURNS HARBOR     1140   73     240/  3/  4 1013.5S
MICHIGAN CITY    1140   72     270/  1/  1   N/A
5NW MICH CITY    1200   73 74  340/  2/  4   N/A     1

$$

INZ004-005-014>016-021>024-271300-
NORTH CENTRAL INDIANA

CITY           SKY/WX    TMP DP  RH WIND       PRES   REMARKS
ELKHART        CLOUDY    72  66  83 CALM      29.94R
GOSHEN         CLOUDY    72  67  84 N3        29.93S
6HR MIN TEMP:  69; 6HR MAX TEMP:  72;

LOGANSPORT +   CLOUDY    70  70 100 SW5       29.95R FOG
PERU/GRISSOM   CLOUDY    71  71  99 SW5       29.93S
6HR MIN TEMP:  71; 6HR MAX TEMP:  74; 6HR PCP:  0.77;

ROCHESTER +    CLOUDY    73  73 100 SW3       29.93F FOG
SOUTH BEND     CLOUDY    72  69  90 CALM      29.94S
6HR MIN TEMP:  71; 6HR MAX TEMP:  74;

WARSAW +       CLOUDY    72  70  94 CALM      29.92F

$$

INZ006>009-017-018-025>027-271300-
NORTHEAST INDIANA

CITY           SKY/WX    TMP DP  RH WIND       PRES   REMARKS
AUBURN +       CLOUDY    70  66  88 CALM      29.93F
FORT WAYNE     CLOUDY    71  68  90 SE5       29.93F
6HR MIN TEMP:  70; 6HR MAX TEMP:  73; 6HR PCP:  0.07;

HUNTINGTON +   CLOUDY    70  69  96 S7        29.93S
6HR MIN TEMP:  69; 6HR MAX TEMP:  72; 6HR PCP:  0.14;

KENDALLVILLE + CLOUDY    70  69  96 CALM      29.94F FOG

$$

INZ028-029-035-036-043>045-051>053-271300-
WEST CENTRAL INDIANA

CITY           SKY/WX    TMP DP  RH WIND       PRES   REMARKS
GREENCASTLE +  CLOUDY    72  72 100 CALM      29.97R
LAFAYETTE      CLOUDY    72  71  97 CALM      29.94S
6HR MIN TEMP:  71; 6HR MAX TEMP:  75; 6HR PCP: TRACE;

TERRE HAUTE    LGT RAIN  73  70  90 SW9       29.95F
6HR MIN TEMP:  73; 6HR MAX TEMP:  76; 6HR PCP:  0.25;


$$

INZ030>032-037>040-046>048-054>057-064-065-271300-
CENTRAL INDIANA

CITY           SKY/WX    TMP DP  RH WIND       PRES   REMARKS
CP ATTERBURY + LGT RAIN  73  70  88 SW3       29.97S
COLUMBUS       CLOUDY    73  72  94 W5        29.97S
FRANKFORT +    CLOUDY    74  73  95 CALM      29.97S
6HR MIN TEMP:  73; 6HR MAX TEMP:  77; 6HR PCP:  0.04;

GREENWOOD *+   CLOUDY   N/A N/A N/A CALM      29.97S
INDIANAPOLIS   CLOUDY    75  73  93 SE3       29.95S
6HR MIN TEMP:  74; 6HR MAX TEMP:  77; 6HR PCP: TRACE;

-EAGLE CREEK   LGT RAIN  75  72  90 CALM      29.94F
6HR MIN TEMP:  74; 6HR MAX TEMP:  78; 6HR PCP:  0.07;

KOKOMO +       LGT RAIN  72  71  97 S7        29.96R FOG
6HR MIN TEMP:  70; 6HR MAX TEMP:  74; 6HR PCP:  0.21;

MT COMFORT *+  CLOUDY    72  72 100 CALM      29.97R
SHELBYVILLE    LGT RAIN  75  71  87 SW5       29.96R FOG
6HR MIN TEMP:  74; 6HR MAX TEMP:  76; 6HR PCP:  0.02;

ZIONSVILLE +   RAIN      71  70  98 CALM      29.97S
6HR MIN TEMP:  70; 6HR MAX TEMP:  74; 6HR PCP:  0.29;


$$

INZ033-034-041-042-049-050-058-059-271300-
EAST CENTRAL INDIANA

CITY           SKY/WX    TMP DP  RH WIND       PRES   REMARKS
MUNCIE         CLOUDY    74  70  87 S3        29.95F
6HR MIN TEMP:  73; 6HR MAX TEMP:  76; 6HR PCP:  0.02;

RICHMOND +     LGT RAIN  70  70 100 CALM      29.98S

$$

INZ060-061-067>069-081>083-085>088-271300-
SOUTHWEST INDIANA

CITY           SKY/WX    TMP DP  RH WIND       PRES   REMARKS
EVANSVILLE     LGT RAIN  75  72  90 CALM      29.98R
6HR MIN TEMP:  74; 6HR MAX TEMP:  79; 6HR PCP:  0.01;

HUNTINGBURG *+ CLOUDY    74  74 100 S3        29.97S FOG
6HR MIN TEMP:  73; 6HR MAX TEMP:  75; 6HR PCP:  0.06;


$$

INZ062-063-066-070>080-084-089>092-271300-
SOUTH CENTRAL AND SOUTHEAST INDIANA

CITY           SKY/WX    TMP DP  RH WIND       PRES   REMARKS
BEDFORD +      PTSUNNY   73  70  88 CALM      29.96S
BLOOMINGTON    CLOUDY    74  71  91 W5        29.97F
6HR MIN TEMP:  74; 6HR MAX TEMP:  75; 6HR PCP:  0.11;

MADISON *+     CLOUDY    73  72  94 CALM      29.99F
NORTH VERNON + CLOUDY    73  72  94 CALM      29.97S
SEYMOUR +      MOSUNNY   75  73  94 CALM      29.97R FOG

$$





USA.gov is the U.S. government's official web portal to all federal, state and local government web resources and services.